Location: Holkham
(52.9500°N, 0.8167°E)
Time: 06:40:32
(UTC+00:00)

Cosmos 1125 Rocket - Pass Details

Date: 19 May 2025
Orbit: 753 x 776 km, 74.0° (Epoch: 18 June)

Event Time Altitude Azimuth Distance (km) Brightness Sun altitude
Rises 21:00:58 0° 332° (NNW) 3,269 8.7 -8.1°
Reaches altitude 10° 21:03:22 10° 331° (NNW) 2,338 7.6 -8.3°
Maximum altitude 21:08:39 70° 249° (WSW) 827 3.8 -8.8°
Drops below altitude 10° 21:13:54 10° 166° (SSE) 2,319 5.4 -9.3°
Enters shadow 21:14:02 - 166° (SSE) 2,372 5.5 -9.3°
